Location: Newark
(41.6500°N, 71.4833°W)
Time: 13:38:04
(UTC+00:00)

deb Explorer IX - Pass Details

Date: 28 January 2020
Orbit: 549 x 1099 km, 38.8° (Epoch: 24 February)

Event Time Altitude Azimuth Distance (km) Brightness Sun altitude
Rises 03:13:27 0° 260° (W) 3,738 - -57.7°
Reaches altitude 10° 03:16:04 10° 258° (WSW) 2,843 - -58.1°
Maximum altitude 03:23:05 71° 176° (S) 1,147 - -59.0°
Drops below altitude 10° 03:30:21 10° 94° (E) 2,939 - -60.0°
Sets 03:33:05 0° 93° (E) 3,872 - -60.4°
